www.pogodaiklimat.ru

Погода и климат >> Архив погоды >> Мексика >> Queretaro


ПОГОДА в Queretaro

  • Прогноз погоды в Queretaro
  • Монитор погоды в Queretaro
  • Климат города

АРХИВ ПОГОДЫ в Queretaro

Время (UTC), дата Ветер
(напр.,м/с)
 
Видим.   Явления Облачность Т
(С)
Тd
(С)
f
(%)
Тe
(С)
Тes
(С)
Комфортность P
(гПа)
Po
(гПа)
Тmin
(С)
Tmax
(С)
R
(мм)
R24
(мм)
S
(см)
06 13.06 В 1 10 км слабая морось {дождь} 10/4 600 м
[Sc Ac cuf]
+15.6 +14.7 94 +16 +16 1010.1 814.9 19
09 13.06 В 1 10 км слабая морось {дождь} 10/4 750 м
[Sc Ac cuf]
+15.4 +14.5 94 +16 +16 1011.7 814.4 3
12 13.06 В 1 15 км слабая морось {дождь} 10/4 600 м
[Sc diur, vesp Ac As]
+15.4 +14.7 96 +16 +16 1011.5 813.8 4
15 13.06 В 2 5000 м 8/4 800 м
[Sc diur, vesp Ac und]
+19.0 +16.3 84 +21 +24 комфорт 1010.8 813.4 0.1
18 13.06 СВ 2 20 км 9/4 600 м
[Cu Sc Ac und]
+21.5 +15.5 69 +25 +30 комфорт 1010.3 813.8 0.1
21 13.06 Ю 1 20 км 9/8 840 м
[Cu Sc Ac As]
+24.5 +16.0 59 +28 +30 душно 1006.5 812.0
00 14.06 СВ 2 20 км слабый дождь 10/5 600 м
[Cu Sc Ac As]
+17.6 +16.3 92 +18 +18 1006.5 812.6 4
03 14.06 СВ 3 20 км слабый дождь 10/6 840 м
[Cu Sc Ac As]
+16.6 +15.7 94 +16 +16 1007.9 813.8 12
06 14.06 В 2 10 км слабая морось {дождь} 10/5 600 м
[Sc Ac As]
+16.6 +15.6 94 +17 +17 1009.5 814.5 16
09 14.06 В 2 10 км {морось} 10/6 750 м
[Sc Ac cuf]
+16.4 +14.9 91 +16 +16 1010.5 814.1 0.5
12 14.06 СВ 1 20 км слабая морось 10/3 600 м
[Sc diur, vesp As op]
+16.0 +15.1 94 +17 +17 1010.3 813.4 0.8
15 14.06 В 1 20 км слабая морось 10/4 840 м
[Sc diur, vesp As op]
+17.7 +16.1 90 +19 +20 1011.9 814.7 0.2
18 14.06 В 3 20 км осадки на расстоянии 9/6 600 м
[Cu Sc Ac As]
+21.4 +16.9 76 +25 +29 комфорт 1010.1 813.9 0.2
21 14.06 З 1 17 км дождь {морось} 10/6 840 м
[Cu Sc As op]
+19.6 +16.5 82 +23 +24 комфорт 1007.8 812.8 0.8
00 15.06 СВ 2 17 км слабый дождь 10/4 600 м
[Cu Sc As op]
+17.7 +16.8 94 +18 +18 1007.1 812.5 18
03 15.06 СВ 1 17 км слабый дождь {морось} 10/4 870 м
[Cu Sc As op]
+17.5 +16.5 94 +19 +19 1008.0 813.3 0.7
06 15.06 В 1 10 км слабая морось 10/5 600 м
[Sc Ac cuf]
+17.2 +15.8 91 +18 +18 1009.5 814.0 0.9
09 15.06 В 1 10 км 10/6 750 м
[Sc Ac cuf]
+17.0 +15.6 91 +18 +18 1009.6 813.4
12 15.06 С 1 5000 м 10/4 750 м
[Sc diur, vesp As op]
+16.3 +14.8 91 +17 +17 1008.9 812.6 +15.8 +23.2
15 15.06 В 1 20 км 10/5 750 м
[Sc diur, vesp As op]
+18.8 +15.2 80 +21 +22 комфорт 1010.1 813.7
18 15.06 СВ 2 20 км 9/6 840 м
[Cu Sc Ac und]
+23.9 +14.5 56 +27 +31 жарко 1008.1 812.9 +15.8 +24.1
21 15.06 СВ 1 20 км 6/6 870 м
[Cu Sc]
+26.9 +15.4 49 +30 +37 душно 1004.3 811.2
00 16.06 СЗ 4 20 км 6/6 600 м
[Cu Sc]
+25.6 +17.3 60 +30 +30 душно 1001.0 809.9 +15.8 +27.0
03 16.06 ЮЗ 3 20 км 9/6 870 м
[Cu Sc Ac As]
+20.6 +16.3 76 +24 +24 комфорт 1002.1 811.2
06 16.06 В 1 10 км слабая морось 10/6 600 м
[Frnb Ac cuf]
+19.0 +16.4 85 +22 +22 комфорт 1004.6 812.8 0.6
09 16.06 В 1 10 км слабая морось {дождь} 10/4 750 м
[Sc As op]
+17.0 +15.8 93 +18 +18 1005.5 812.4 10
12 16.06 штиль 0 20 км {дождь} 8/4 600 м
[Cu hum Ac trans]
+15.8 +15.5 98 +16 +16 1006.3 811.6 11
15 16.06 штиль 0 20 км 9/4 750 м
[Sc diur, vesp Ac und]
+18.4 +16.4 88 +19 +22 1008.1 812.4
18 16.06 ЮВ 2 20 км 5/5 840 м
[Cu Sc]
+24.4 +16.2 60 +28 +39 душно 1006.8 811.8 +15.6 +24.6
21 16.06 СВ 2 20 км 4/3 870 м
[Cu med, cong Ac trans]
+28.4 +16.4 48 +32 +42 душно 1003.2 810.2
00 17.06 СВ 3 20 км 5/4 600 м
[Cu med, cong Ac As]
+28.2 +15.2 45 +31 +32 душно 999.4 808.8 +15.6 +28.4
03 17.06 СВ 4 20 км 9/6 870 м
[Cu Sc Ac As]
+23.6 +15.6 61 +27 +27 жарко 999.3 809.9
06 17.06 В 2 10 км 6/3 750 м
[Cu hum Ac cuf]
+20.6 +16.0 75 +24 +24 комфорт 1001.9 811.9 +15.6 +28.4
09 17.06 В 2 10 км 5/1 750 м
[Cu hum Ac cuf]
+19.0 +15.5 80 +21 +21 комфорт 1002.5 811.3
12 17.06 В 1 10 км 6/1 750 м
[Sc diur, vesp Ac trans]
+17.5 +14.4 82 +19 +19 1005.1 811.9 +17.4 +28.4
15 17.06 СЗ 1 20 км 8/4 750 м
[Cu med, cong Ac trans]
+20.2 +15.8 76 +24 +28 комфорт 1007.8 813.1
18 17.06 СЗ 2 18 км 5/3 840 м
[Cu med, cong Ac As]
+25.0 +16.3 58 +28 +40 жарко 1006.7 812.5 +17.4 +25.2
21 17.06 СЗ 2 20 км 4/4 870 м
[Cu med, cong]
+28.4 +15.8 46 +31 +41 душно 1002.3 810.0
00 18.06 С 1 5000 м 10/8 840 м
[Cb calv Ac As]
+23.1 +16.2 65 +28 +28 душно 1000.6 810.0 +17.4 +28.5
03 18.06 В 2 5000 м дождь {морось} 10/8 840 м
[Cu Sc As op]
+18.1 +15.3 84 +19 +19 1004.7 813.4 2
06 18.06 В 1 10 км слабый дождь 10/4 600 м
[Sc As op]
+17.0 +16.4 96 +18 +18 1006.6 814.1 13
09 18.06 В 1 10 км {дождь, морось} 10/3 750 м
[Sc Ac cuf]
+16.8 +16.2 96 +18 +18 1008.2 813.8 1
12 18.06 ЮЗ 1 10 км {дождь} 8/1 600 м
[Sc diur, vesp Ac trans]
+16.1 +14.6 91 +17 +17 1009.7 813.6 3
15 18.06 З 1 20 км 8/8 750 м
[Cu Sc]
+17.2 +15.2 88 +18 +20 1010.8 814.0
18 18.06 СЗ 2 20 км 8/5 840 м
[Cu Sc Ac As]
+23.4 +15.1 60 +28 +34 душно 1009.4 813.6 +15.8 +23.5
21 18.06 З 2 20 км 9/6 870 м
[Cu Sc Ac und]
+25.2 +14.7 52 +28 +31 жарко 1005.4 811.6
00 19.06 Ю 2 20 км слабая морось 10/9 600 м
[Cu Sc Ac As]
+20.8 +15.0 69 +24 +25 комфорт 1005.0 812.1 0.9
03 19.06 З 1 5000 м слабая морось 9/6 870 м
[Cu Sc Ac und]
+19.1 +14.7 76 +22 +22 комфорт 1005.5 812.9 0.2
06 19.06 В 1 5000 м слабый дождь 10/4 600 м
[Sc As op]
+16.8 +15.8 94 +18 +18 1008.1 814.4 8
09 19.06 С 1 5000 м слабая морось 10/4 750 м
[Sc As op]
+16.8 +15.9 94 +18 +18 1008.1 813.2 0.1
12 19.06 З 1 10 км слабый дождь 10/4 600 м
[Frnb As op]
+15.8 +15.1 96 +16 +16 1009.5 813.3 12
15 19.06 З 1 20 км слабый дождь 9/5 750 м
[Cu med, cong Ac und]
+16.4 +16.1 98 +17 +19 1011.1 814.1 4
18 19.06 Ю 2 18 км осадки на расстоянии 9/8 600 м
[Cu Sc Ac As]
+22.4 +15.5 65 +26 +29 жарко 1009.3 813.2 3
21 19.06 Ю 2 20 км осадки на расстоянии 9/8 840 м
[Cu Sc Ac trans]
+24.4 +15.8 59 +28 +30 душно 1005.3 811.0
00 20.06 ЮЗ 4 20 км слабый дождь 10/8 600 м
[Cu Sc Ac As]
+18.8 +16.2 85 +20 +20 1005.7 812.0 0.8

 

Местоположение метеостанции Queretaro (Мексика): широта 20.58 долгота -100.40 высота над уровнем моря 1880 м.

В архиве по умолчанию представлена погода в Queretaro за последнюю неделю. Архивные данные за месяц целиком и за предыдущие месяцы, начиная с января 2011 года, Вы можете получить, выбрав интересующий диапазон дат из раскрывающегося списка и нажав кнопку "Ввод!".


*Определитесь, кто Вы:
робот инопланетянин человек

Внимание! Время в таблицах - всемирное. Для получения местного времени необходимо прибавить поправку, которая в Queretaro равна -6 ч.

Смотрите также архив погоды в соседних городах и на ближайших метеорологических станциях:

Погода в Guanajuato (Мексика) (95 км)
Погода в Morelia (Мексика) (122 км)
Погода в Rio Verde (Мексика) (156 км)
Погода в Toluca (Мексика) (163 км)
Погода в Pachuca (Мексика) (179 км)
Погода в Lagos De Moreno (Мексика) (180 км)
Погода в Mexico City (Мексика) (183 км)
Погода в Matlapa (Мексика) (185 км)
Погода в San Luis Potosi (Мексика) (185 км)
Погода в Institute of Geography (Мексика) (189 км)

Пояснения к столбцам:

Ветер - указаны скорость ветра в м/с - средняя за 10 мин, порывы в срок и между сроками (в фигурных скобках) и направление, откуда дует ветер: С - северный, СВ - северо-восточный, В - восточный, ЮВ - юго-восточный, Ю - южный, ЮЗ - юго-западный, З - западный, СЗ - северо-западный.
Видимость - горизонтальная дальность видимости в метрах или километрах. При видимости от 1 до 10 км при отсутствии осадков обычно наблюдается дымка, при ухудшении видимости до 1 км и менее - туман. В сухую погоду видимость может ухудшаться дымом, пылью или мглою.
Явления - указаны атмосферные явления, наблюдавшиеся в срок или в последний час перед сроком; фигурными скобками обозначены явления, наблюдавшиеся между сроками (за 1-3 часа до срока); квадратными скобками обозначены град или гололедные отложения с указанием их диаметра в мм.
Облачность - указаны через наклонную черту общая и нижняя облачность в баллах и высота нижней границы облаков в метрах; квадратными скобками обозначены формы облаков: Ci - перистые, Cs - перисто-слоистые, Cc - перисто-кучевые, Ac - высококучевые, As - высокослоистые, Sc - слоисто-кучевые, Ns - слоисто-дождевые, Cu - кучевые, Cb - кучево-дождевые. Подробнее классификацию облаков см. в Атласе облаков (PDF).
T - Температура воздуха - температура, измеренная на высоте 2 м над землей.
Td - Температура точки росы - температура, при понижении до которой содержащийся в воздухе водяной пар достигнет насыщения.
f - Относительная влажность воздуха - влажноcть воздуха, измеренная на высоте 2 м над землей.
Te - Эффективная температура - температура, которую ощущает одетый по сезону человек в тени. Характеристика душности погоды. При расчете учитывается влияние влажности воздуха и скорости ветра на теплоощущения человека.
Tes - Эффективная температура на солнце - температура, которую ощущает человек, с поправкой на солнечный нагрев. Характеристика знойности погоды. Зависит от высоты солнца над горизонтом, облачности и скорости ветра. Ночью, в пасмурную погоду, а также при ветре 12 м/с и более поправка равна нулю.
P - Атмосферное давление - приведенное к уровню моря атмосферное давление.
Po - Атмосферное давление - измеренное на уровне метеостанции атмосферное давление.
Tmin - Минимальная температура - минимум температуры воздуха на высоте 2 м над землей.
Tmax - Максимальная температура - максимум температуры воздуха на высоте 2 м над землей.
R - Количество осадков - Количество выпавших осадков за период времени, мм. При наведении курсора мыши на число - период времени, за который выпало указанное количество осадков.
R24 - Количество осадков - Количество выпавших осадков за 24 часа, мм.
S - Снежный покров - Высота снежного покрова, см. При наведении курсора мыши на число - состояние снежного покрова и степень покрытия местности в баллах.